Temperature
18 18 18 18 18 18 18 18 18 18 18 18 18 18 18 18 18 18 18 18 17 17 17 17 17 17 17 17 17 17 17 17 17 17 17 17 16 16 16 16 16 16 16
18 18 18 18 18 18 18 18 18 18 18 18 18 18 18 18 18 18 18 18 17 17 17 17 17 17 17 17 17 17 17 17 17 17 17 17 16 16 16 16 16 16 16
18 18 18 18 18 18 18 18 18 18 18 18 18 18 18 18 18 18 17 17 17 17 17 17 17 17 17 17 17 17 17 17 17 17 17 16 16 16 16 16 16 16 16
18 18 18 18 18 18 18 18 18 18 18 18 18 18 18 18 18 17 17 17 17 17 17 17 17 17 17 17 17 17 17 17 17 17 16 16 16 16 16 16 16 16 16
18 18 18 18 18 18 18 18 18 18 18 18 18 18 18 17 17 17 17 17 17 17 17 17 17 17 17 17 17 17 17 17 17 17 16 16 16 16 16 16 16 16 16
18 18 18 18 18 18 18 18 18 18 18 18 18 18 17 17 17 17 17 17 17 17 17 17 17 17 17 17 17 17 17 17 17 16 16 16 16 16 16 16 16 16 16
18 18 18 18 18 18 18 18 18 18 18 18 18 17 17 17 17 17 17 17 17 17 17 17 17 17 17 17 17 16 16 16 16 16 16 16 16 16 16 16 16 16 15
19 19 19 18 18 18 18 18 18 18 18 18 18 17 17 17 17 17 17 17 17 17 17 17 17 17 17 17 17 16 16 16 16 16 16 16 16 16 15 15 15 15 15
19 19 19 19 18 18 18 18 18 18 18 18 18 18 17 17 17 17 17 17 17 17 17 17 17 17 16 16 16 16 16 16 16 16 16 16 16 15 15 15 15 15 15
18 18 18 18 18 18 18 18 18 18 18 18 18 18 17 17 17 17 17 17 17 17 17 17 17 16 16 16 16 16 16 16 16 16 16 16 15 15 15 15 15 15 15
18 18 18 18 18 18 18 18 18 18 18 18 18 18 17 17 17 17 17 17 17 17 17 16 16 16 16 16 16 16 16 16 16 16 16 16 15 15 15 15 15 15 15
18 18 18 18 18 18 18 18 18 18 18 18 17 17 17 17 17 17 17 17 17 17 16 16 16 16 16 16 16 16 16 16 16 16 16 15 15 15 15 15 15 15 15
18 18 18 18 18 18 18 18 18 18 18 17 17 17 17 17 17 17 17 17 16 16 16 16 16 16 16 16 16 16 16 16 16 16 16 15 15 15 15 15 15 15 15
18 18 18 18 18 18 18 18 18 18 17 17 17 17 17 17 17 17 17 16 16 16 16 16 16 16 16 16 16 15 15 15 15 15 15 15 15 15 15 15 15 14 14
18 18 18 18 18 18 18 18 18 17 17 17 17 17 17 17 17 16 16 16 16 16 16 16 16 16 16 15 15 15 15 15 15 15 15 15 15 15 15 15 14 14 14
18 18 18 18 18 18 18 17 17 17 17 17 17 17 17 16 16 16 16 16 16 16 15 16 16 16 15 15 15 15 15 15 15 15 15 15 15 15 15 14 14 14 14
18 18 18 18 18 18 17 17 17 17 17 17 17 16 16 16 16 16 16 16 16 16 16 16 15 15 15 15 15 15 15 15 15 15 15 15 14 14 14 14 14 14 14
18 18 18 18 18 17 17 17 17 17 17 16 16 16 16 16 16 16 16 16 16 16 15 15 15 15 15 15 15 14 14 14 14 14 14 14 14 14 14 14 14 14 14
18 18 18 18 17 17 17 17 17 16 16 16 16 16 16 16 16 16 16 16 15 15 15 15 15 15 15 14 14 14 14 14 14 14 14 14 14 14 14 14 14 14 14
18 18 17 17 17 17 17 17 16 16 16 16 16 16 16 16 16 16 16 15 15 15 15 15 15 15 14 14 14 14 14 14 14 14 14 14 14 14 14 14 14 13 13
18 18 17 17 17 17 17 16 16 16 16 16 16 16 16 16 16 15 15 15 15 15 15 15 14 14 14 14 14 14 14 14 14 13 13 13 13 13 14 14 13 13 13
17 17 17 17 17 17 16 16 16 16 16 16 16 16 15 15 15 15 15 15 15 15 15 14 14 14 14 14 14 14 13 13 13 13 13 13 13 13 13 13 13 13 13
17 17 17 17 16 16 16 16 16 16 16 16 16 15 15 15 15 15 15 15 15 14 14 14 14 14 14 14 14 13 13 13 13 13 13 13 13 13 13 13 13 13 13
17 17 16 16 16 16 16 16 16 15 15 15 15 15 15 15 15 15 15 14 14 14 14 14 14 14 14 13 13 13 13 13 13 13 13 13 13 13 13 13 13 13 13
17 17 16 16 16 16 16 16 16 15 15 15 15 15 15 15 15 15 14 14 14 14 14 14 14 14 13 13 13 13 13 13 13 13 13 12 13 12 13 13 13 13 12
17 16 16 16 16 16 16 16 16 15 15 15 15 15 15 15 15 14 14 14 14 14 14 14 14 13 13 13 13 13 12 12 12 12 12 12 12 12 12 12 12 12 12
Wind_Speed
3 3 3 3 4 4 4 3 3 3 3 3 4 4 4 4 5 6 7 10 11 12 12 12 12 12 12 12 11 11 11 11 10 10 10 9 9 10 9 9 10 10 10
5 4 3 3 3 4 5 4 3 3 2 2 2 3 4 4 4 5 6 8 10 10 10 11 12 12 12 11 11 11 11 10 10 10 9 9 9 9 9 9 10 10 10
6 4 3 3 4 5 4 3 2 2 2 2 2 2 3 4 4 4 6 6 7 9 9 9 10 10 10 10 10 11 10 10 9 9 8 8 9 8 8 9 9 9 9
7 4 3 3 4 4 3 2 2 2 1 2 1 1 1 2 3 4 5 6 6 6 7 7 7 8 9 9 9 9 8 9 9 8 8 7 7 8 7 8 9 9 9
6 5 3 3 4 3 2 2 2 3 2 2 2 1 1 2 2 3 4 5 6 6 6 6 6 7 8 8 9 8 8 9 9 9 8 7 7 7 7 6 8 8 9
5 5 3 3 4 3 2 1 2 2 2 2 1 0 0 1 1 2 3 3 5 6 7 6 6 5 7 7 7 8 8 7 8 9 9 8 8 7 7 7 6 6 7
5 5 3 3 3 3 3 3 2 2 1 2 2 1 2 2 1 1 1 2 3 5 6 6 6 5 5 6 7 8 7 7 8 8 9 8 8 8 8 8 7 7 6
5 5 4 3 3 3 3 2 2 1 1 2 3 2 1 3 2 1 1 2 2 3 4 5 5 5 5 5 5 7 7 7 8 9 9 9 9 9 9 9 8 8 7
4 4 4 4 3 3 3 2 2 3 2 1 2 3 3 3 2 2 1 1 1 1 2 3 4 5 6 5 5 6 6 6 7 8 9 9 9 9 10 10 9 9 9
4 4 4 4 4 3 3 3 2 2 3 1 0 1 2 3 2 1 2 1 0 1 1 2 3 5 6 6 6 6 7 7 8 7 7 7 7 8 9 9 10 9 9
2 4 4 4 3 3 3 3 2 2 2 2 2 1 1 1 2 2 1 2 2 1 2 2 2 4 5 6 6 6 7 7 7 7 8 8 8 7 7 9 9 9 8
1 2 3 3 3 3 3 3 3 3 2 2 2 2 2 2 2 2 2 2 2 2 2 2 2 3 4 5 5 6 7 7 7 7 7 7 8 8 8 8 9 8 8
2 2 3 3 3 3 3 3 2 2 2 2 2 2 2 2 2 3 3 1 1 2 1 1 1 3 4 4 4 4 5 6 7 7 7 7 7 7 7 7 7 7 7
3 3 3 3 3 3 3 3 2 2 1 2 2 2 1 1 1 2 3 3 1 2 2 2 1 2 3 5 5 4 4 6 6 7 6 6 6 6 6 6 6 6 6
3 3 3 3 3 3 3 3 2 2 2 1 1 1 1 1 1 1 2 3 3 2 3 3 2 2 3 4 5 4 4 4 5 6 6 7 7 7 7 7 6 6 6
3 3 3 3 3 3 2 3 2 1 1 1 1 1 1 1 1 0 1 1 2 3 3 3 3 2 2 3 4 5 5 4 5 6 6 7 7 7 7 7 7 6 6
4 4 4 4 4 3 2 2 2 2 2 2 1 2 1 1 0 0 1 1 1 2 3 2 2 1 1 1 2 3 4 4 5 6 6 6 6 7 7 7 7 8 8
4 5 5 4 4 4 3 3 3 2 2 2 2 2 2 1 1 1 1 1 2 2 3 3 2 1 1 2 2 2 3 4 4 6 7 7 7 7 7 7 8 9 9
4 4 5 5 4 3 3 3 3 2 2 3 3 3 3 2 2 1 1 2 2 2 2 2 2 1 1 1 0 1 1 2 3 5 7 7 8 8 8 8 8 9 9
5 4 4 4 4 3 3 3 2 2 2 2 3 3 3 3 4 3 2 2 2 1 1 2 2 1 1 1 1 1 1 2 2 3 4 5 7 9 9 9 9 9 10
5 5 4 3 3 3 3 3 2 2 2 2 2 2 3 4 4 4 3 3 3 2 2 2 2 1 1 1 2 2 2 2 3 2 2 2 3 4 6 8 9 10 10
4 4 4 4 3 3 4 5 3 2 3 3 3 2 3 2 3 4 5 5 5 4 4 3 3 3 4 3 2 2 2 1 3 3 2 3 2 3 5 7 10 11 12
4 4 4 4 4 5 6 6 6 4 3 4 4 3 3 3 3 2 3 3 4 6 7 6 5 5 4 5 3 3 3 3 4 3 2 3 2 4 5 8 11 13 13
5 4 4 5 4 5 6 6 6 4 3 4 4 4 4 3 3 3 2 2 3 4 6 5 6 6 6 5 5 5 5 3 3 2 3 3 3 3 4 6 10 13 13
4 4 4 5 5 5 6 6 5 3 3 4 4 4 4 4 6 4 2 2 3 4 5 6 7 7 7 7 5 3 2 2 2 3 3 3 2 2 3 3 6 10 12
4 4 4 5 6 5 6 7 6 3 3 3 3 4 6 6 7 6 4 4 5 5 4 3 3 5 5 6 7 6 5 4 2 3 3 3 3 2 2 3 3 4 6
Wind_Direction
167 173 179 183 191 185 180 180 188 179 180 184 178 169 172 172 182 189 194 197 197 197 199 202 203 204 207 206 208 209 209 211 209 211 211 213 217 217 216 215 211 209 210
172 175 176 183 196 197 194 186 182 180 182 169 168 172 177 179 185 184 188 196 201 202 205 208 206 209 211 212 212 213 212 213 212 212 213 216 218 219 220 220 216 215 217
170 172 172 180 192 188 179 167 164 151 158 157 169 195 185 180 184 182 184 193 201 208 211 213 211 210 211 215 217 217 218 218 215 213 209 213 217 217 222 220 217 214 214
167 166 163 180 183 165 159 151 141 138 149 150 166 191 186 178 187 182 185 191 195 200 202 203 208 211 210 213 214 214 219 222 219 212 208 206 208 212 219 220 219 217 214
171 165 165 173 162 143 142 166 148 158 162 163 175 190 194 192 200 190 187 189 193 195 190 196 204 209 215 217 217 220 221 221 212 209 210 208 209 209 211 213 215 213 211
162 152 154 150 140 131 136 152 158 160 169 181 175 114 343 218 206 211 211 191 191 192 187 187 192 207 215 215 216 220 220 219 211 212 214 217 212 208 208 209 210 212 215
147 141 138 140 139 144 161 160 148 142 150 131 96 33 357 340 267 243 222 187 192 197 192 191 196 201 206 208 216 222 222 219 218 218 218 218 212 207 207 209 208 212 217
144 148 141 145 142 138 136 143 133 138 173 142 137 115 20 341 324 296 224 186 198 193 194 204 199 196 199 201 210 213 222 224 226 222 221 217 213 211 214 214 215 215 219
147 148 145 142 140 141 156 164 156 156 176 208 146 146 155 218 286 319 297 147 151 182 207 194 195 204 205 205 210 217 220 226 230 229 223 216 216 221 222 221 222 222 223
147 149 145 146 148 150 160 179 166 162 150 169 239 189 170 163 161 305 330 336 208 201 219 218 204 207 206 201 207 216 223 228 230 230 222 219 218 224 222 219 224 226 225
153 156 151 147 151 159 167 162 148 145 150 161 170 171 146 132 136 154 267 307 322 270 236 234 218 202 202 200 204 213 220 229 232 230 225 223 222 221 222 223 224 223 226
174 166 152 152 163 165 169 171 167 155 163 159 160 156 154 159 185 171 204 245 263 275 258 241 211 198 197 198 212 222 222 223 229 232 232 230 227 226 223 222 223 224 228
185 196 172 168 174 178 174 169 165 170 166 160 176 188 182 191 173 161 163 207 254 281 289 280 235 201 204 198 213 224 228 225 223 229 227 225 223 225 224 222 222 225 225
190 184 176 176 178 175 169 164 162 180 157 177 189 176 179 222 177 168 173 167 209 301 294 271 274 215 210 201 212 214 219 227 226 224 223 227 228 224 223 223 224 224 220
185 180 176 175 178 171 169 157 164 187 160 173 196 179 190 241 203 197 174 167 170 216 265 262 255 242 209 200 204 201 210 219 216 214 217 223 230 229 224 219 221 223 219
179 164 165 172 168 158 155 146 154 176 157 193 185 152 203 250 240 238 194 196 176 183 232 253 241 248 211 201 203 202 210 216 221 221 219 221 229 229 226 222 218 216 215
170 169 168 154 153 153 150 151 169 178 178 194 184 164 201 210 219 234 204 209 195 171 212 260 260 262 202 208 187 201 214 215 229 230 226 224 228 229 227 224 220 220 221
168 168 160 152 162 160 157 165 187 201 186 191 202 193 225 215 222 226 202 213 219 200 189 227 252 245 231 225 206 207 214 225 229 239 234 231 228 227 227 228 227 226 224
164 162 156 160 167 163 165 181 190 200 200 203 202 199 214 187 228 237 220 219 230 219 184 189 226 232 239 248 290 263 248 231 236 247 242 240 235 233 231 231 232 228 226
162 164 166 166 165 166 180 196 196 200 212 224 221 209 205 193 211 216 220 219 215 208 186 181 212 245 244 255 159 226 280 273 258 251 243 245 243 237 234 234 234 230 227
173 169 165 165 170 180 194 185 199 206 210 232 244 229 223 207 206 209 211 209 193 193 194 198 215 222 231 213 221 216 237 267 272 243 246 250 241 240 241 240 236 231 228
175 164 173 179 193 208 198 189 183 203 207 209 230 253 247 224 230 231 223 215 198 195 200 201 211 220 233 225 222 219 217 224 266 244 206 251 215 237 241 236 235 229 227
176 178 196 194 203 210 202 195 193 192 204 213 221 234 249 235 227 232 241 245 242 230 209 198 207 223 218 217 202 215 220 219 238 231 188 245 230 240 247 242 234 228 226
181 191 202 202 205 220 208 202 196 197 212 229 230 224 224 238 227 212 220 256 263 253 234 216 213 223 221 214 203 206 215 229 266 249 180 224 245 246 257 244 235 225 223
188 197 199 202 209 230 220 208 190 190 222 247 247 234 221 227 232 206 195 243 273 281 265 238 229 230 228 221 201 182 191 190 258 255 207 199 232 250 266 257 246 231 226
198 203 212 213 209 216 216 204 186 187 217 243 261 254 239 234 235 217 209 222 249 261 264 270 256 255 241 232 213 198 199 206 227 246 221 189 214 203 270 269 246 233 227
Height
1541 1541 1542 1543 1544 1545 1546 1546 1547 1548 1548 1549 1550 1550 1551 1551 1551 1551 1551 1551 1551 1552 1552 1552 1553 1553 1555 1555 1556 1556 1557 1557 1558 1558 1558 1559 1559 1560 1560 1561 1562 1563 1563
1541 1542 1543 1544 1544 1545 1546 1547 1547 1548 1548 1549 1549 1550 1550 1550 1550 1550 1550 1550 1551 1551 1551 1551 1551 1552 1553 1553 1554 1554 1555 1555 1556 1556 1556 1557 1557 1558 1558 1559 1560 1561 1561
1541 1542 1543 1544 1544 1545 1546 1547 1547 1548 1548 1549 1549 1549 1550 1550 1550 1550 1550 1550 1550 1550 1550 1550 1550 1550 1551 1551 1552 1552 1553 1553 1553 1554 1554 1554 1555 1556 1556 1557 1558 1558 1559
1541 1542 1542 1543 1544 1545 1546 1547 1547 1547 1548 1548 1548 1549 1549 1549 1549 1549 1549 1549 1549 1548 1548 1548 1549 1549 1550 1550 1550 1550 1550 1550 1550 1551 1551 1552 1553 1553 1554 1554 1555 1556 1557
1540 1541 1542 1543 1544 1545 1545 1546 1546 1547 1547 1547 1548 1548 1548 1548 1548 1548 1548 1548 1548 1547 1547 1547 1548 1548 1548 1548 1548 1548 1548 1546 1547 1548 1549 1550 1551 1551 1552 1552 1553 1554 1554
1540 1541 1542 1543 1543 1544 1545 1545 1545 1546 1546 1547 1547 1547 1547 1548 1547 1547 1547 1547 1547 1546 1546 1546 1547 1547 1547 1547 1547 1547 1546 1545 1545 1546 1546 1547 1548 1549 1550 1550 1551 1552 1552
1540 1541 1541 1542 1543 1543 1544 1545 1545 1545 1546 1546 1546 1546 1547 1547 1547 1547 1546 1546 1546 1546 1546 1546 1546 1546 1545 1545 1545 1545 1545 1544 1544 1544 1545 1546 1546 1547 1547 1548 1548 1549 1550
1540 1540 1541 1541 1542 1543 1543 1544 1544 1544 1545 1545 1545 1545 1546 1547 1546 1546 1546 1545 1545 1545 1545 1545 1545 1544 1544 1544 1544 1544 1544 1543 1544 1544 1544 1544 1544 1545 1545 1546 1546 1547 1547
1540 1540 1540 1541 1541 1542 1542 1543 1543 1543 1543 1544 1544 1545 1544 1544 1545 1545 1545 1545 1544 1544 1544 1544 1544 1544 1544 1544 1544 1543 1543 1542 1542 1542 1542 1542 1542 1543 1543 1543 1544 1545 1545
1539 1540 1540 1540 1541 1541 1541 1541 1542 1542 1542 1542 1543 1543 1544 1543 1544 1544 1544 1544 1544 1543 1543 1543 1543 1543 1543 1543 1543 1543 1542 1541 1541 1540 1540 1540 1541 1541 1541 1541 1542 1542 1542
1539 1539 1540 1540 1540 1540 1540 1540 1541 1541 1541 1541 1542 1542 1542 1542 1542 1542 1542 1543 1543 1542 1542 1542 1542 1541 1542 1541 1541 1541 1541 1540 1540 1539 1539 1539 1539 1539 1539 1539 1539 1539 1540
1538 1539 1539 1539 1539 1539 1539 1540 1540 1540 1540 1540 1540 1541 1541 1541 1541 1541 1541 1541 1541 1541 1541 1541 1540 1540 1540 1540 1540 1540 1539 1539 1538 1538 1537 1537 1537 1537 1537 1537 1537 1537 1537
1537 1537 1538 1538 1538 1538 1538 1538 1538 1539 1539 1539 1539 1539 1539 1539 1540 1540 1540 1540 1539 1539 1539 1539 1539 1539 1538 1538 1538 1538 1537 1537 1536 1536 1535 1535 1534 1534 1534 1534 1535 1535 1535
1535 1536 1536 1537 1537 1537 1537 1537 1537 1537 1537 1537 1537 1537 1538 1538 1538 1538 1538 1538 1538 1538 1537 1537 1537 1537 1537 1537 1537 1536 1535 1535 1534 1534 1533 1533 1533 1532 1532 1532 1532 1533 1533
1534 1534 1535 1535 1535 1535 1535 1535 1535 1535 1535 1535 1536 1536 1536 1536 1536 1537 1537 1537 1537 1536 1535 1535 1535 1535 1535 1534 1534 1534 1533 1533 1532 1532 1531 1530 1530 1530 1530 1530 1530 1530 1530
1532 1532 1533 1533 1533 1533 1534 1534 1534 1534 1534 1534 1534 1534 1534 1535 1535 1535 1535 1535 1535 1535 1534 1534 1533 1533 1533 1532 1532 1531 1531 1531 1530 1529 1529 1528 1528 1527 1527 1527 1527 1527 1528
1530 1530 1530 1531 1531 1531 1532 1532 1532 1532 1532 1532 1532 1532 1533 1533 1533 1533 1533 1533 1533 1533 1532 1531 1531 1531 1531 1530 1529 1529 1529 1528 1528 1527 1526 1526 1525 1525 1524 1524 1524 1524 1524
1527 1528 1528 1528 1529 1529 1530 1530 1531 1531 1531 1531 1530 1531 1531 1531 1531 1531 1531 1531 1531 1531 1530 1529 1529 1528 1528 1528 1527 1527 1526 1526 1525 1524 1524 1523 1523 1522 1522 1522 1522 1522 1521
1525 1526 1526 1526 1527 1527 1528 1529 1529 1530 1529 1529 1529 1529 1529 1529 1529 1529 1529 1528 1528 1528 1528 1527 1526 1526 1526 1525 1525 1524 1524 1523 1522 1522 1521 1520 1520 1520 1519 1519 1519 1519 1519
1523 1523 1524 1524 1525 1525 1526 1526 1527 1527 1527 1527 1527 1527 1527 1527 1526 1526 1526 1526 1526 1525 1525 1524 1524 1523 1523 1522 1522 1521 1520 1520 1519 1519 1518 1518 1517 1517 1516 1516 1516 1516 1516
1521 1521 1522 1522 1523 1523 1524 1524 1524 1524 1524 1524 1524 1525 1525 1525 1524 1524 1524 1523 1523 1522 1522 1522 1521 1520 1520 1519 1518 1518 1517 1517 1516 1516 1515 1515 1514 1514 1514 1513 1513 1513 1513
1519 1519 1520 1520 1520 1520 1521 1522 1522 1522 1522 1522 1522 1522 1522 1522 1522 1521 1521 1520 1520 1519 1519 1518 1518 1517 1516 1516 1516 1515 1514 1513 1512 1513 1512 1511 1511 1511 1510 1510 1510 1510 1510
1517 1517 1518 1519 1518 1519 1519 1519 1519 1520 1520 1520 1520 1520 1520 1520 1519 1519 1518 1517 1517 1516 1516 1515 1514 1514 1514 1513 1513 1512 1511 1510 1510 1509 1509 1507 1507 1507 1507 1507 1507 1507 1506
1514 1515 1515 1516 1516 1516 1516 1517 1517 1517 1517 1517 1517 1517 1517 1517 1516 1516 1515 1514 1513 1513 1512 1512 1511 1511 1510 1510 1509 1509 1508 1507 1507 1506 1506 1504 1503 1503 1503 1503 1503 1503 1503
1511 1512 1512 1513 1513 1514 1514 1514 1514 1514 1514 1514 1514 1514 1514 1513 1513 1512 1512 1511 1510 1509 1509 1508 1508 1507 1506 1506 1505 1505 1504 1503 1502 1502 1502 1501 1500 1499 1499 1499 1499 1499 1499
1508 1509 1509 1509 1510 1510 1511 1511 1511 1511 1511 1511 1511 1511 1511 1510 1510 1509 1508 1507 1506 1506 1505 1505 1504 1504 1503 1502 1501 1501 1500 1499 1498 1497 1497 1497 1496 1496 1495 1494 1495 1495 1495